STARLINK-33655, 63424

Orbit data source: Space-Track

STARLINK-33655, 63424 is a payload satellite owned by SpaceX/Seattle (US) in LEO that was launched on Mon, 31 Mar 2025 UTC via an FALCON 9 launch vehicle from the Air Force Eastern Test Range (AFETR). Payload-class satellites include a variety of spacecraft equipped with specific instruments for various scientific and technological missions. These include communications satellites like Starlink; space stations such as the ISS; scientific satellites like the Hubble; Earth observation satellites from companies like Planet Labs, Umbra, and HawkEye 360; GPS; miniature CubeSats for education and research; and military/defense satellites.

Loading next visibility...
Identifier
63424, 2025-065AB
Orbit
LEO
Country
Flag of USUS
Related business
Manufacturer
SpaceX/Seattle
Mission
Operational Commercial Communications
Bus & Motor
STARLINK V2MO, Unknown motor
Mass
575 kg wet, ~530 kg dry
Launch date (UTC)
2025-03-31 (1 year ago)
Launch vehicle
FALCON 9
Launch site
Air Force Eastern Test Range (AFETR)
Object type
Payload
Rocket body
Debris
Shape & HBR
Box + 2 Pan, 17.7 m
Radar Cross Section
36.964 m², Large (>1 m²)

Expand to show TLE details & history
Last TLE update: 15 hours ago

TLE from 15 hours ago
0 STARLINK-33655
1 63424U 25065AB  26171.26967696  .00010926  00000-0  40584-3 0  9997
2 63424  43.0019 248.0907 0002115 278.7144  81.3468 15.27590777 68521
Epoch: 2026-06-20T06:28Z
TLE epoch observation values (Epoch: 2026-06-20T06:28:20.089Z)
Latitude
-0.00002°
Longitude
-117.47974°
Altitude
482.574 km
Speed
7.626 km/s
True Right ascension
16h 32m 21s
True Declination
0° 00' 00"
Sunlit
Object was in full shadow at epoch
Visualization orbit readout
Latitude
Unknown
Longitude
Unknown
Altitude
Unknown
Speed
Unknown
Apparent Right ascension
Unknown
Apparent Declination
Unknown
Sunlit
N/A
Visualization observer readout
Local Sidereal Time
08:42:45
Azimuth
Unknown
Elevation
Unknown
Doppler factor
Unknown
Orbital elements
Apogee altitude
486.413 km
Perigee altitude
483.51 km
Semi-major axis
6,863.099 km
Eccentricity
0.00021
Inclination
43.0019°
RAAN
248.0907°
Arg. of periapsis
278.7144°
True anomaly
81.37076°
Mean anomaly
81.3468°
Eccentric anomaly
81.35878°
Mean motion
3.81736 °/min
Orbital period
94.31 mins
BSTAR
0.00040584
Loading maneuver chart data...
Computing Atmospheric mass density...
Loading historical data...
Loading historical data...
Loading historical data...
Loading historical data...
Loading historical data...
Loading historical data...
Loading historical data...

Documentation

Showing up to 5 results
|